Location: Kelowna
(49.8880°N, 119.4960°W)
Time: 16:26:55
(UTC-07:00)

AO-27 - Pass Details

Date: 13 August 2024
Orbit: 783 x 796 km, 98.8° (Epoch: 14 September)

Event Time Altitude Azimuth Distance (km) Brightness Sun altitude
Exits shadow 22:55:43 - 216° (SW) 3,082 10.5 -20.1°
Reaches altitude 10° 22:58:20 10° 234° (SW) 2,361 10.1 -20.3°
Maximum altitude 23:01:29 16° 272° (W) 1,976 10.1 -20.6°
Drops below altitude 10° 23:04:40 10° 310° (NW) 2,375 11.2 -20.9°
Sets 23:07:58 0° 331° (NNW) 3,312 12.5 -21.1°
